Weather in Volzhskiy Utes

Russia / Samara Oblast     53°22′35″N   49°05′25″E
temp.,
°C
wind,
m/s
gust,
m/s
humid.,
%
clouds,
%
prec.,
mm/h
press.,
hPa
HPBL,
m
8 august, mon
mon801:00+20n225697 0.0 101911
04:00+19n226165 0.0 101912
07:00+20n236653 0.0 102076
10:00+26ne34508 0.0 1020381
13:00+28ne334242 0.0 10201041
16:00+29n343260 0.0 10191552
19:00+26n3448100 0.0 101970
22:00+22ene1163100 0.0 101911
9 august, tue
tue901:00+21n226870 0.0 101914
04:00+19nnw227386 0.0 101916
07:00+20n2375100 0.0 102090
10:00+25nne3460100 0.0 1020364
13:00+28n3347100 0.0 10191097
16:00+29nne2341100 0.0 10181410
19:00+23e467148 0.0 1019148
22:00+21ne117299 0.0 101811
10 august, wed
wed1001:00+19nw22765 0.3 101811
04:00+19ne117819 0.4 101811
07:00+21nne11725 0.0 101938
10:00+25ne11576 0.5 1019388
13:00+28e2146100 0.0 10181188
16:00+29ne2240100 0.0 10171124
19:00+26nne2251100 0.0 101722
22:00+23nw005384 0.0 101711
11 august, thu
thu1101:00+21nw2360100 0.0 101819
04:00+19nnw3378100 0.0 101831
07:00+20nnw5885100 0.0 1019340
10:00+22n6767100 0.0 1020670
13:00+23n7753100 0.0 10211020
16:00+24n6744100 0.0 10211108
19:00+22n59490 0.0 1021525
22:00+17nne411650 0.0 1023283
12 august, fri
fri1201:00+14nne33740 0.0 102457
04:00+13n22755 0.0 102430
07:00+16nw12667 0.0 102482
10:00+21nnw2346100 0.0 1024752
13:00+24nne23385 0.0 10231692
16:00+25nnw24375 0.0 10211838
19:00+23nw22500 0.0 102157
22:00+19wnw33600 0.0 102127